Location: Brivio
(45.7333°N, 9.4500°E)
Time: 11:50:14
(UTC+00:00)

N. Korean satellite - Pass Details

Date: 11 December 2019
Orbit: 454 x 508 km, 97.2° (Epoch: 17 January)

Event Time Altitude Azimuth Distance (km) Brightness Sun altitude
Rises 16:45:11 0° 182° (S) 2,600 10.6 -11.3°
Reaches altitude 10° 16:47:21 10° 189° (S) 1,718 9.8 -11.6°
Maximum altitude 16:50:53 42° 262° (W) 729 8.0 -12.2°
Drops below altitude 10° 16:54:26 10° 334° (NNW) 1,718 9.4 -12.8°
Sets 16:56:36 0° 342° (NNW) 2,600 10.3 -13.1°
